This demonstration page uses our WeatherBlox Daily Observations layout. Learn more.

Hourly Observations for December 27, 2016

Temp ( °F °C ) Dew Point ( °F °C ) Humidity (%) Winds ( mph kmh ) Pressure ( in mb ) Visibility ( mi km ) Precip ( " mm )
12:15 am 00:15 Clear 26 -3.1 17 -8.5 67 67 WSW 3 6 30.39 1029 10 16.0934 0 0
12:35 am 00:35 Clear 27 -3 17 -8.3 67 67 W 3 6 30.36 1028 10 16.0934 0 0
12:55 am 00:55 Clear 26 -3.4 16 -8.7 67 67 W 3 6 30.36 1028 10 16.0934 0 0
1:15 am 01:15 Clear 27 -2.7 17 -8.4 65 65 Calm 30.36 1028 10 16.0934 0 0
1:35 am 01:35 Clear 26 -3.1 17 -8.6 66 66 W 5 7 30.36 1028 10 16.0934 0 0
1:55 am 01:55 Clear 26 -3.5 17 -8.5 69 69 WSW 3 6 30.36 1028 10 16.0934 0 0
2:15 am 02:15 Clear 25 -3.8 16 -8.7 69 69 Calm 30.36 1028 10 16.0934 0 0
2:35 am 02:35 Clear 27 -3 17 -8.2 68 68 Calm 30.36 1028 10 16.0934 0 0
2:55 am 02:55 Clear 25 -3.8 17 -8.5 70 70 W 6 9 30.36 1028 10 16.0934 0 0
3:15 am 03:15 Clear 24 -4.5 17 -8.4 74 74 W 6 9 30.42 1030 10 16.0934 0 0
3:35 am 03:35 Clear 24 -4.4 17 -8.6 73 73 Calm 30.36 1028 10 16.0934 0 0
3:55 am 03:55 Clear 26 -3.5 18 -8 71 71 SW 3 6 30.36 1028 10 16.0934 0 0
4:15 am 04:15 Clear 25 -4 17 -8.4 72 72 Calm 30.36 1028 10 16.0934 0 0
4:35 am 04:35 Clear 25 -3.7 17 -8.3 71 71 Calm 30.36 1028 10 16.0934 0 0
4:55 am 04:55 Clear 23 -5 16 -9 74 74 WSW 7 11 30.39 1029 10 16.0934 0 0
5:15 am 05:15 Clear 27 -2.9 18 -7.6 70 70 WSW 7 11 30.36 1028 10 16.0934 0 0
5:35 am 05:35 Clear 26 -3.4 18 -8 71 71 W 5 7 30.36 1028 10 16.0934 0 0
5:55 am 05:55 Clear 27 -3 18 -7.6 71 71 WSW 7 11 30.36 1028 10 16.0934 0 0
6:15 am 06:15 Clear 26 -3.1 18 -7.8 70 70 WSW 3 6 30.33 1027 10 16.0934 0 0
6:35 am 06:35 Clear 28 -2.3 19 -7.5 68 68 WSW 9 15 30.33 1027 10 16.0934 0 0
6:55 am 06:55 Clear 26 -3.1 18 -8 69 69 SW 10 17 30.33 1027 10 16.0934 0 0
7:15 am 07:15 Clear 26 -3.6 17 -8.2 71 71 WSW 10 17 30.33 1027 10 16.0934 0 0
7:35 am 07:35 Clear 26 -3.4 17 -8.3 69 69 SW 10 17 30.33 1027 10 16.0934 0 0
7:55 am 07:55 Clear 25 -4.1 17 -8.4 72 72 SW 12 19 30.33 1027 10 16.0934 0 0
8:15 am 08:15 Sunny 26 -3.5 17 -8.1 71 71 SSW 9 15 30.33 1027 10 16.0934 0 0
8:35 am 08:35 Sunny 27 -3 18 -7.7 70 70 SW 12 19 30.33 1027 10 16.0934 0 0
8:55 am 08:55 Sunny 27 -2.7 18 -7.7 69 69 SW 13 20 30.33 1027 10 16.0934 0 0
9:15 am 09:15 Sunny 27 -2.6 18 -7.6 69 69 WSW 8 13 30.33 1027 10 16.0934 0 0
9:35 am 09:35 Sunny 29 -1.8 19 -7.5 65 65 WSW 9 15 30.33 1027 10 16.0934 0 0
9:55 am 09:55 Sunny 29 -1.5 19 -7.1 66 66 WSW 7 11 30.3 1026 10 16.0934 0 0
10:15 am 10:15 Sunny 31 -0.7 20 -6.6 65 65 WSW 8 13 30.3 1026 10 16.0934 0 0
10:35 am 10:35 Sunny 32 0 21 -6.1 64 64 WSW 7 11 30.3 1026 10 16.0934 0 0
10:55 am 10:55 Sunny 34 0.9 22 -5.5 63 63 SW 7 11 30.3 1026 10 16.0934 0 0
11:15 am 11:15 Sunny 35 1.6 23 -5.1 61 61 SSW 9 15 30.24 1024 10 16.0934 0 0
11:35 am 11:35 Sunny 36 2 23 -4.8 61 61 SW 10 17 30.24 1024 10 16.0934 0 0
11:55 am 11:55 Sunny 36 2.4 24 -4.6 60 60 SSW 10 17 30.21 1023 10 16.0934 0 0
12:15 pm 12:15 Sunny 37 2.5 24 -4.7 59 59 SW 12 19 30.21 1023 10 16.0934 0 0
12:35 pm 12:35 Sunny 38 3.2 23 -5 55 55 SW 10 17 30.21 1023 10 16.0934 0 0
12:55 pm 12:55 Sunny 39 3.9 24 -4.6 54 54 WSW 9 15 30.18 1022 10 16.0934 0 0
1:15 pm 13:15 Sunny 40 4.5 24 -4.6 52 52 SW 9 15 30.15 1021 10 16.0934 0 0
1:35 pm 13:35 Sunny 41 5.1 24 -4.5 50 50 SW 9 15 30.15 1021 10 16.0934 0 0
1:55 pm 13:55 Sunny 43 6.1 22 -5.5 44 44 SW 14 22 30.12 1020 10 16.0934 0 0
2:15 pm 14:15 Sunny 44 6.5 22 -5.5 42 42 SW 9 15 30.09 1019 10 16.0934 0 0
2:35 pm 14:35 Sunny 45 7.3 22 -5.4 40 40 WSW 9 15 30.09 1019 10 16.0934 0 0
2:55 pm 14:55 Sunny 46 7.8 22 -5.6 38 38 SW 6 9 30.09 1019 10 16.0934 0 0
3:15 pm 15:15 Sunny 47 8.2 22 -5.7 37 37 SW 9 15 30.06 1018 10 16.0934 0 0
3:35 pm 15:35 Sunny 47 8.2 20 -6.5 35 35 SSW 12 19 30.06 1018 10 16.0934 0 0
3:55 pm 15:55 Sunny 46 8 20 -6.5 35 35 SSW 14 22 30.06 1018 10 16.0934 0 0
4:15 pm 16:15 Sunny 46 7.7 20 -6.4 36 36 SSW 13 20 30.03 1017 10 16.0934 0 0
4:35 pm 16:35 Sunny 45 7 21 -6.1 39 39 S 9 15 30.03 1017 10 16.0934 0 0
4:55 pm 16:55 Sunny 42 5.7 21 -5.9 43 43 S 10 17 30.06 1018 10 16.0934 0 0
5:15 pm 17:15 Sunny 40 4.4 22 -5.7 48 48 S 8 13 30.06 1018 10 16.0934 0 0
5:35 pm 17:35 Clear 38 3.6 22 -5.6 51 51 S 12 19 30.03 1017 10 16.0934 0 0
5:55 pm 17:55 Clear 38 3.1 22 -5.7 53 53 S 9 15 30.03 1017 10 16.0934 0 0
6:15 pm 18:15 Clear 36 2.3 22 -5.6 56 56 S 10 17 30.06 1018 10 16.0934 0 0
6:35 pm 18:35 Clear 35 1.7 22 -5.3 60 60 S 9 15 30.06 1018 10 16.0934 0 0
6:55 pm 18:55 Clear 35 1.5 22 -5.5 60 60 S 8 13 30.06 1018 10 16.0934 0 0
7:15 pm 19:15 Clear 34 1 22 -5.5 62 62 S 7 11 30.06 1018 10 16.0934 0 0
7:35 pm 19:35 Clear 33 0.3 22 -5.6 65 65 S 5 7 30.06 1018 10 16.0934 0 0
7:55 pm 19:55 Clear 30 -1.3 22 -5.5 73 73 S 6 9 30.09 1019 10 16.0934 0 0
8:15 pm 20:15 Clear 31 -0.3 22 -5.5 68 68 S 6 9 30.03 1017 10 16.0934 0 0
8:35 pm 20:35 Clear 32 0.1 23 -5.2 68 68 S 6 9 30.03 1017 10 16.0934 0 0
8:55 pm 20:55 Clear 32 0.2 23 -5.1 68 68 SSW 10 17 30 1016 10 16.0934 0 0
9:15 pm 21:15 Clear 33 0.8 22 -5.4 64 64 SSW 7 11 30.03 1017 10 16.0934 0 0
9:35 pm 21:35 Clear 32 0.1 22 -5.5 66 66 S 3 6 30.03 1017 10 16.0934 0 0
9:55 pm 21:55 Clear 30 -1 22 -5.4 72 72 S 5 7 30.06 1018 10 16.0934 0 0
10:15 pm 22:15 Clear 29 -1.5 22 -5.5 74 74 S 12 19 30.03 1017 10 16.0934 0 0
10:35 pm 22:35 Clear 31 -0.3 23 -5.2 70 70 SSW 6 9 30 1016 10 16.0934 0 0
10:55 pm 22:55 Clear 30 -1 22 -5.5 72 72 SSW 8 13 30 1016 10 16.0934 0 0
11:15 pm 23:15 Clear 30 -1.2 22 -5.5 73 73 SSW 5 7 30 1016 10 16.0934 0 0
11:35 pm 23:35 Clear 29 -1.9 22 -5.7 76 76 SSW 3 6 30.03 1017 10 16.0934 0 0
11:55 pm 23:55 Clear 28 -2.5 22 -5.8 78 78 SSW 5 7 30.03 1017 10 16.0934 0 0

Powered by AerisWeather